CHINASAT 1A (ZX 1A) (37804 NORAD) Tracking and Keplerian Element Data

This shows tracking and keplerian element data for the satellite.

Feedback or suggestion? Click here.




ElementValue
Catalog37804
NameCHINASAT 1A (ZX 1A)
Epoch Orbit1707
Epoch Day238.79758306
Epoch Year2023
RAAN91.7405
Inclination1.056
Eccentricity0.0001258
Argument of Perigee23.2568
Mean Anonmoly64.7194
Mean Motion1.00047612
Decay Rate-1.94E-06
L11 37804U 11047A 23238.79758306 -.00000194 00000+0 00000+0 0 9991
L22 37804 1.0560 91.7405 0001258 23.2568 64.7194 1.00047612 17071



Live tracking and technical data element details for CHINASAT 1A (ZX 1A) (NORAD 37804). CHINASAT 1A (ZX 1A) can be tracked NOW for your location showing map with azimuth and elevation plus other details from your city location.







IsCatalogInMostPopularTable: catalog: 37804, numindb: 598
Update: records affected: 1



GetName: 37804 CHINASAT 1A (ZX 1A)

Hit Count: updated at: Sat, 07 Mar 2026 07:02:40 GMT